Regional Weather Roundup
Issued by NWS Wakefield, VA

Home | Current Version | Previous Version | Text Only | Print | Product List | Glossary Off
Versions: 1 2 3 4 5 6 7 8 9 10 11 12 13 14 15 16 17 18 19 20 21 22 23 24 25 26 27 28 29 30 31 32 33 34 35 36 37 38 39 40 41 42 43 44 45 46 47 48 49 50

000
ASUS41 KAKQ 291410
RWRAKQ

REGIONAL WEATHER ROUNDUP
NATIONAL WEATHER SERVICE WAKEFIELD VA
1000 AM EDT FRI AUG 29 2014

Note: "fair" indicates few or no clouds below 12,000 feet with no
significant weather and/or obstructions to visibility. * = Denotes
station may not report precipitation (e.g., rain,snow,etc.),
thunder or fog.

VAZ042-051-052>054-056-291500-
NORTHERN VIRGINIA

CITY           SKY/WX    TMP DP  RH WIND       PRES   REMARKS
WASH NATIONAL  MOSUNNY   73  52  47 NE6       30.21R
DULLES         PTSUNNY   68  52  56 NE5       30.22R
FORT BELVOIR   SUNNY     70  54  57 VRB3      30.21S
QUANTICO       MOSUNNY   70  56  61 NE6       30.21S
FREDERICKSBRG* SUNNY     71  54  54 NE7       30.19S
STAFFORD*      SUNNY     69  57  66 NE8       30.24S
WARRENTON      SUNNY     70  60  68 NE5       30.21R
CULPEPER*      SUNNY    N/A N/A N/A CALM      30.22R
MANASSAS*      SUNNY     68  55  64 CALM      30.21S
LEESBURG*      SUNNY     70  55  60 NE3       30.23S
WINCHESTER     SUNNY     66  50  55 E5        30.23R
$$

VAZ048-049-060>072-079>083-291500-
CENTRAL AND SOUTH CENTRAL VIRGINIA...AND NORTH CENTRAL NORTH CAROLINA

CITY           SKY/WX    TMP DP  RH WIND       PRES   REMARKS
RICHMOND       MOSUNNY   74  59  59 NE7       30.18R
CHESTERFIELD*  SUNNY     73  52  46 NE8       30.20R
PETERSBURG*    MOSUNNY   74  59  57 NE8       30.18R
HANOVER        SUNNY     72  57  59 VRB7      30.20R
TAPPAHANNOCK*  SUNNY     74  54  49 N5        30.20R
CHARLOTTSVILLE SUNNY     70  52  52 E7        30.22R
ORANGE*        SUNNY     68  54  60 NW5       30.23R
LOUISA*        SUNNY     70  57  64 N3        30.20R
FARMVILLE*     CLOUDY    70  57  64 NE7       30.18R
SOUTH HILL*    MOSUNNY  N/A N/A N/A NE6       30.21S
ROANOKE RAPIDS CLOUDY    73  68  83 NE7       30.14R
RALEIGH        PTSUNNY   75  67  76 E9        30.14R
$$

VAZ088>098-291500-
SOUTHEAST VIRGINIA

CITY           SKY/WX    TMP DP  RH WIND       PRES   REMARKS
NORFOLK        SUNNY     77  63  61 NE12      30.15R
VIRGINIA BEACH MOSUNNY   78  62  57 NE14      30.14R
NORFOLK NAVAL  MOSUNNY   78  63  59 E13       30.17R
WEST POINT*    SUNNY     76  61  59 NE7       30.19R
NEWPORT NEWS   SUNNY     80  65  59 E14       30.16R
LANGLEY AFB    SUNNY     77  66  69 E12       30.15R
FORT EUSTIS    SUNNY     78  59  51 NE8       30.14S
WILLIAMSBURG*  SUNNY     81  64  57 E5        30.17R
FRANKLIN*      PTSUNNY   77  66  69 E10       30.14S
WAKEFIELD      SUNNY     77  62  59 VRB6      30.15S
$$

VAZ020-022-025-037-045-291500-
WESTERN AND SOUTHWEST VIRGINIA

CITY           SKY/WX    TMP DP  RH WIND       PRES   REMARKS
STAUNTON*      SUNNY     67  54  61 E5        30.24S
HOT SPRINGS VA SUNNY     60  50  69 SE6       30.29S
LYNCHBURG      MOSUNNY   69  55  60 NE12      30.22R
DANVILLE       PTSUNNY   74  63  68 NE8       30.18R
MARTINSVILLE   MOSUNNY   72  60  64 N7        30.22S
ROANOKE        PTSUNNY   71  52  50 SE5       30.23S
BLACKSBURG     CLOUDY    68  57  68 E6        30.26S
DUBLIN*        CLOUDY    69  57  66 E5        30.25S
MARION*        CLOUDY   N/A N/A N/A NE8       30.26S
HILLSVILLE*    CLOUDY    65  57  73 E5        30.25R
RICHLANDS*     SUNNY     76  66  70 SE7       30.19S
WISE*          SUNNY     75  63  64 CALM      30.21R
ABINGDON*      SUNNY     76  67  73 E10       30.17S
$$

MDZ021>025-VAZ099-100-291500-
SOUTHERN MARYLAND AND THE DELMARVA PENINSULA

CITY           SKY/WX    TMP DP  RH WIND       PRES   REMARKS
PATUXENT RIVER MOSUNNY   71  53  52 N8        30.19R
BAY BRIDGE APT   N/A     70  50  49 NE3       30.21R
LEONARDTOWN    SUNNY     70  52  52 NE6       30.21R
DOVER          SUNNY     70  57  63 N10       30.18R
GEORGETOWN     SUNNY     71  56  58 E13       30.19R
EASTON         SUNNY     70  55  60 NE6       30.23R
CAMBRIDGE      SUNNY     72  55  56 NE6       30.19R
SALISBURY      SUNNY     72  56  57 N7        30.19R
OCEAN CITY     SUNNY     72  57  59 NE8       30.18R
WALLOPS ISLAND MOSUNNY   74  56  53 N8        30.18R
ACCOMACK*      NOT AVBL
$$

NCZ012>017-030>032-291500-
EASTERN NORTH CAROLINA

CITY           SKY/WX    TMP DP  RH WIND       PRES   REMARKS
ELIZABETH CITY PTSUNNY   78  67  68 NE14      30.13R
AHOSKIE*       SUNNY     72  69  92 NE3       30.14R
EDENTON*       PTSUNNY   77  72  84 E7        30.12R
CURRITUCK*     SUNNY     78  63  58 NE10G16   30.14S
KILL DEVIL HLS CLOUDY    76  68  77 NE6       30.12R
MANTEO         CLOUDY    73  70  88 E8        30.13R
CAPE HATTERAS  NOT AVBL
GOLDSBORO      CLOUDY    76  75  98 NE8       30.10R
WASHINGTON     MOSUNNY   75  71  87 NE6       30.12R
GREENVILLE     MOSUNNY   77  70  78 E10       30.13S
NEW BERN       CLOUDY    79  69  71 W3        30.11S
WILMINGTON     MOSUNNY   81  70  69 W7        30.11R
$$

VAZ048-291500-
ELSEWHERE

CITY           SKY/WX    TMP DP  RH WIND       PRES   REMARKS
HARRISBURG PA  PTSUNNY   66  53  63 W3        30.21S
BALTIMORE      PTSUNNY   69  50  50 E10       30.21R
ANNAPOLIS      SUNNY     69  53  56 E7        30.21R
ANDREWS AFB    SUNNY     69  55  60 NE8       30.21R
WILMINGTON DE  MOSUNNY   70  53  54 VRB3      30.20S
PHILADELPHIA   PTSUNNY   72  52  49 NE7       30.19S
WILDWOOD NJ*   MOSUNNY   70  54  56 NE6       30.19R
ATLANTIC CITY  MOSUNNY   69  57  65 NE7       30.18R
HENDERSON NC   CLOUDY    72  65  79 NE10      30.16S
GREENSBORO     CLOUDY    72  62  71 NE10      30.16S
ROCKY MOUNT    PTSUNNY   78  69  73 VRB6      30.13R
FAYETTEVILLE   SUNNY     81  64  56 NW3       30.10S
CHARLOTTE      MOSUNNY   80  68  66 N9G20     30.13R
$$

VAZ100-291500-
MARINE

STATION/POSITION TIME  TEMP    WIND        PRES    WAVE   SWELL
                       AIR SEA DIR/SP/G            HT/PER HT/PER
                 (UTC) (F)     (DEG/KT/KT) (MB)    (FT/S) (FT/S)
44066 TX TWR #4  1400   69 72   30/ 12/ 14 1020.8R   4/10   3/10
CAPE MAY NJ      1400   69 78   50/  4/  7 1021.5R
LEWES DE         1400   68 74   30/  9/ 10 1021.9R
15NM E FENWICK I 1400   69 73              1021.4R   3/11
OCEAN-CITY-INLET 1400   69 75   10/  7/ 10 1021.4R
WACHAPREAGUE VA  1400   73 78   40/  9/ 12 1021.4R
THOMAS POINT MD  1400   67 77   40/  7/  9 1023.8R
GOOSES REEF MD   1400   68      70/  8/ 10 1023.0S
COVE POINT MD    1400   68      30/  6/  7 1022.3F
SOLOMONS ISLAND  1400      79                N/A
BISHOPS HEAD MD  1400   69 75   40/  7/ 10 1021.7S
PINEY POINT MD   1400           40/  5/  7   N/A
POTOMAC MD       1400   70      60/  8/ 10 1021.5S
CAMBRIDGE MD     1400   67 78   30/  5/  6 1022.3R
LEWISETTA VA     1400   70 78   70/  7/  9 1021.9R
RAPPAHANNOCK LGT 1400           30/  9/ 11 1021.9S
STINGRAY PT      1400   72      40/ 12/ 16   N/A
YORK RVR RNG VA  1400   73      60/ 14/ 15 1020.7S
YORKTOWN VA      1400   74 80   70/ 11/ 13 1021.0R
JAMESTOWN VA     1400   73      90/  6/ 10   N/A
DOMINION TERM VA 1400   76      30/  3/  8 1021.1R
KIPTOPEKE VA     1400      81   70/ 10/ 13   N/A
CHES BAY BRIDGE  1400   75 78   50/ 13/ 15 1020.4R
CAPE HENRY VA    1400   75      60/ 12/ 14 1019.7S
CHESAPEAKE LGHT  1300   74      60/ 13/ 14 1021.3R
WILLOUBY STN VA  1400   75      70/ 10/ 12 1019.7R
S CRANEY ISL VA  1400           20/ 12/ 14 1020.6R
CAPE HENRY BUOY  1400      77                N/A     3/ 9
1ST LANDING BUOY 1400   75      60/ 12/ 16 1020.4S
CAPE CHARLES BUO 1400      76                N/A     3/10   2/10
OFFSHORE WE BUOY 1300      75                N/A     4/ 9   3/ 9
64NM E OF VA BCH 1400   76 76   30/  8/ 10 1020.1R   4/ 9   3/ 9
DUCK PIER NC     1400   76 78   50/ 14/ 16 1019.6R
44056 DUCK FRF   1300                        N/A     3/ 9
OREGON INLET NC  1400   76 79   40/ 12/ 15 1019.7R
HATTERAS NC      1400   79 80  290/  5/  6 1019.9R
DIAMOND SHLS NC  1400   80     280/  6/  8 1019.3R   4/10   3/10
CAPE LOOKOUT NC  1300   79     290/  9/ 10 1019.2R
$$



USA.gov is the U.S. government's official web portal to all federal, state and local government web resources and services.